Вернуться в каталог

ARIANE 5 DEB

SYLDA

АктивенHEO
NORAD 49057·DEBRIS·🇫🇷 France

Запущен Jul 30, 2021 с Guiana Space Centre

Loading…

Ближайшие Пролёты (ближайшие 24 часа)

TLE

СвежийSource: Space-Track

Эпоха: Sep 14, 2026, 13:40 UTC

1 49057U 21069C   26257.56981704  .00046783  00000-0  76805-2 0  9991
2 49057   3.0697 147.3246 6371547  71.5176 344.7553  3.51004063 53910

Отслеживайте ARIANE 5 DEB в реальном времени с AllMySat

Download on the App Store